When you browse on this site, cookies collect data to enhance your experience and personalize the content and advertising you see.
Visit our Privacy Policy to learn more. By continuing to use the site, you agree to this use of cookies and data.
  • In Hungary
  • List of Countries
  • For 7 days
  • Water Temperature
  • Weather Map
  • News
  • Weather Widgets
  • user-avatar
    Login

    Hourly Weather Terracina

    Today, 14 December, Saturday

    Time Temperature Precipitation Wind Pressure Humidity
    00:00 +7°C° 0.1 mm 9 mps 742 mmHg 71%
    01:00 +7°C° 0 mm 9 mps 743 mmHg 72%
    02:00 +6°C° 0 mm 10 mps 744 mmHg 72%
    03:00 +6°C° 0 mm 10 mps 744 mmHg 72%
    04:00 +6°C° 0 mm 11 mps 745 mmHg 72%
    05:00 +5°C° 0 mm 10 mps 746 mmHg 74%
    06:00 +5°C° 0 mm 9 mps 748 mmHg 76%
    07:00 +5°C° 0 mm 8 mps 749 mmHg 77%
    08:00 +6°C° 0 mm 7 mps 750 mmHg 74%
    09:00 +8°C° 0 mm 5 mps 751 mmHg 70%
    10:00 +11°C° 0 mm 4 mps 752 mmHg 67%
    11:00 +12°C° 0 mm 4 mps 752 mmHg 63%
    12:00 +13°C° 0 mm 3 mps 752 mmHg 59%
    13:00 +14°C° 0 mm 4 mps 753 mmHg 55%
    14:00 +14°C° 0 mm 4 mps 754 mmHg 58%
    15:00 +13°C° 0 mm 3 mps 754 mmHg 62%
    16:00 +13°C° 0 mm 3 mps 755 mmHg 65%
    17:00 +12°C° 0 mm 3 mps 756 mmHg 67%
    18:00 +12°C° 0 mm 3 mps 756 mmHg 69%
    19:00 +12°C° 0 mm 2 mps 757 mmHg 70%
    20:00 +12°C° 0 mm 2 mps 758 mmHg 72%
    21:00 +12°C° 0 mm 2 mps 758 mmHg 73%
    22:00 +12°C° 0 mm 2 mps 759 mmHg 75%
    23:00 +10°C° 0 mm 2 mps 759 mmHg 75%

    Tomorrow, 15 December, Sunday

    Time Temperature Precipitation Wind Pressure Humidity
    00:00 +10°C° 0 mm 2 mps 759 mmHg 76%
    01:00 +10°C° 0 mm 2 mps 759 mmHg 76%
    02:00 +10°C° 0 mm 2 mps 759 mmHg 76%
    03:00 +10°C° 0 mm 2 mps 760 mmHg 76%
    04:00 +10°C° 0 mm 2 mps 760 mmHg 76%
    05:00 +10°C° 0 mm 2 mps 760 mmHg 77%
    06:00 +10°C° 0 mm 2 mps 761 mmHg 77%
    07:00 +10°C° 0 mm 3 mps 761 mmHg 78%
    08:00 +11°C° 0 mm 3 mps 761 mmHg 78%
    09:00 +12°C° 0 mm 3 mps 762 mmHg 77%
    10:00 +13°C° 0 mm 3 mps 762 mmHg 77%
    11:00 +15°C° 0 mm 2 mps 762 mmHg 76%
    12:00 +16°C° 0 mm 2 mps 762 mmHg 75%
    13:00 +17°C° 0 mm 2 mps 762 mmHg 74%
    14:00 +16°C° 0 mm 2 mps 762 mmHg 78%
    15:00 +16°C° 0 mm 2 mps 762 mmHg 81%
    16:00 +14°C° 0 mm 3 mps 762 mmHg 84%
    17:00 +14°C° 0 mm 3 mps 762 mmHg 85%
    18:00 +13°C° 0 mm 3 mps 763 mmHg 86%
    19:00 +13°C° 0 mm 4 mps 763 mmHg 87%
    20:00 +13°C° 0 mm 4 mps 763 mmHg 87%
    21:00 +13°C° 0 mm 4 mps 764 mmHg 87%
    22:00 +12°C° 0 mm 4 mps 764 mmHg 86%
    23:00 +12°C° 0 mm 4 mps 764 mmHg 87%

    Day after tomorrow, 16 December, Monday

    Time Temperature Precipitation Wind Pressure Humidity
    00:00 +13°C° 0 mm 3 mps 764 mmHg 87%
    01:00 +13°C° 0 mm 3 mps 765 mmHg 88%
    02:00 +12°C° 0 mm 3 mps 765 mmHg 89%
    03:00 +12°C° 0 mm 3 mps 764 mmHg 89%
    04:00 +12°C° 0 mm 3 mps 764 mmHg 90%
    05:00 +12°C° 0 mm 4 mps 764 mmHg 91%
    06:00 +12°C° 0 mm 4 mps 765 mmHg 91%
    07:00 +12°C° 0 mm 4 mps 765 mmHg 91%
    08:00 +13°C° 0 mm 4 mps 765 mmHg 89%
    09:00 +14°C° 0 mm 4 mps 765 mmHg 87%
    10:00 +15°C° 0 mm 4 mps 765 mmHg 85%
    11:00 +17°C° 0 mm 4 mps 764 mmHg 81%
    12:00 +18°C° 0 mm 4 mps 764 mmHg 76%
    13:00 +18°C° 0 mm 4 mps 764 mmHg 72%
    14:00 +18°C° 0 mm 4 mps 764 mmHg 74%
    15:00 +17°C° 0 mm 4 mps 763 mmHg 76%
    16:00 +17°C° 0 mm 4 mps 763 mmHg 78%
    17:00 +15°C° 0 mm 4 mps 763 mmHg 77%
    18:00 +15°C° 0 mm 4 mps 763 mmHg 77%
    19:00 +14°C° 0 mm 4 mps 763 mmHg 76%
    20:00 +14°C° 0 mm 5 mps 763 mmHg 75%
    21:00 +14°C° 0 mm 5 mps 763 mmHg 74%
    22:00 +14°C° 0 mm 5 mps 763 mmHg 73%
    23:00 +14°C° 0 mm 5 mps 763 mmHg 73%

    17 December, Tuesday

    Time Temperature Precipitation Wind Pressure Humidity
    00:00 +14°C° 0 mm 5 mps 763 mmHg 72%
    01:00 +13°C° 0 mm 5 mps 763 mmHg 72%
    02:00 +13°C° 0 mm 5 mps 763 mmHg 73%
    03:00 +13°C° 0 mm 5 mps 763 mmHg 74%
    04:00 +13°C° 0 mm 5 mps 763 mmHg 74%
    05:00 +13°C° 0 mm 5 mps 763 mmHg 76%
    06:00 +13°C° 0 mm 5 mps 763 mmHg 77%
    07:00 +13°C° 0 mm 5 mps 763 mmHg 79%
    08:00 +14°C° 0 mm 5 mps 763 mmHg 79%
    09:00 +14°C° 0 mm 5 mps 763 mmHg 78%
    10:00 +15°C° 0 mm 6 mps 763 mmHg 78%
    11:00 +16°C° 0 mm 6 mps 763 mmHg 79%
    12:00 +16°C° 0 mm 6 mps 762 mmHg 79%
    13:00 +17°C° 0 mm 6 mps 762 mmHg 79%
    14:00 +16°C° 0 mm 6 mps 762 mmHg 81%
    15:00 +16°C° 0 mm 6 mps 762 mmHg 83%
    16:00 +15°C° 0 mm 6 mps 762 mmHg 85%
    17:00 +15°C° 0 mm 6 mps 762 mmHg 86%
    18:00 +15°C° 0 mm 6 mps 762 mmHg 86%
    19:00 +15°C° 0 mm 6 mps 762 mmHg 87%
    20:00 +14°C° 0 mm 6 mps 762 mmHg 86%
    21:00 +14°C° 0 mm 6 mps 762 mmHg 86%
    22:00 +14°C° 0 mm 6 mps 762 mmHg 85%
    23:00 +14°C° 0 mm 6 mps 762 mmHg 85%

    18 December, Wednesday

    Time Temperature Precipitation Wind Pressure Humidity
    00:00 +14°C° 0 mm 6 mps 762 mmHg 84%
    01:00 +14°C° 0 mm 6 mps 762 mmHg 83%
    02:00 +14°C° 0 mm 6 mps 762 mmHg 83%
    03:00 +14°C° 0 mm 6 mps 761 mmHg 82%
    04:00 +14°C° 0 mm 6 mps 761 mmHg 82%
    05:00 +14°C° 0.1 mm 6 mps 761 mmHg 82%
    06:00 +14°C° 0.1 mm 6 mps 761 mmHg 82%
    07:00 +14°C° 0.1 mm 6 mps 760 mmHg 82%
    08:00 +14°C° 0.1 mm 6 mps 760 mmHg 80%
    09:00 +15°C° 0.1 mm 7 mps 760 mmHg 79%
    10:00 +15°C° 0.1 mm 7 mps 760 mmHg 78%
    11:00 +15°C° 0.2 mm 7 mps 760 mmHg 77%
    12:00 +16°C° 0.2 mm 8 mps 759 mmHg 77%
    13:00 +16°C° 0.2 mm 8 mps 759 mmHg 76%
    14:00 +16°C° 0.3 mm 8 mps 758 mmHg 76%
    15:00 +16°C° 0.3 mm 8 mps 758 mmHg 77%
    16:00 +15°C° 0.3 mm 9 mps 757 mmHg 77%
    17:00 +15°C° 0.5 mm 9 mps 757 mmHg 77%
    18:00 +15°C° 0.5 mm 8 mps 757 mmHg 76%
    19:00 +15°C° 0.5 mm 8 mps 757 mmHg 76%
    20:00 +15°C° 2.6 mm 8 mps 757 mmHg 80%
    21:00 +13°C° 2.6 mm 8 mps 757 mmHg 83%
    22:00 +13°C° 2.6 mm 8 mps 757 mmHg 87%
    23:00 +14°C° 0.6 mm 7 mps 757 mmHg 86%

    19 December, Thursday

    Time Temperature Precipitation Wind Pressure Humidity
    00:00 +13°C° 0.6 mm 6 mps 757 mmHg 85%
    01:00 +13°C° 0.6 mm 6 mps 757 mmHg 84%
    02:00 +13°C° 0.4 mm 6 mps 757 mmHg 84%
    03:00 +11°C° 0.4 mm 7 mps 756 mmHg 84%
    04:00 +11°C° 0.4 mm 7 mps 756 mmHg 84%
    05:00 +11°C° 1.6 mm 7 mps 756 mmHg 86%
    06:00 +11°C° 1.6 mm 7 mps 756 mmHg 88%
    07:00 +11°C° 1.6 mm 7 mps 756 mmHg 90%
    08:00 +11°C° 0.7 mm 7 mps 756 mmHg 88%
    09:00 +11°C° 0.7 mm 6 mps 756 mmHg 87%
    10:00 +13°C° 0.7 mm 6 mps 757 mmHg 85%
    11:00 +13°C° 0.1 mm 5 mps 757 mmHg 80%
    12:00 +14°C° 0.1 mm 5 mps 757 mmHg 75%
    13:00 +15°C° 0.1 mm 5 mps 757 mmHg 69%
    14:00 +15°C° 0 mm 4 mps 757 mmHg 71%
    15:00 +14°C° 0 mm 4 mps 757 mmHg 73%
    16:00 +14°C° 0 mm 4 mps 757 mmHg 76%
    17:00 +13°C° 0 mm 4 mps 758 mmHg 77%
    18:00 +13°C° 0 mm 4 mps 758 mmHg 79%
    19:00 +12°C° 0 mm 4 mps 758 mmHg 81%
    20:00 +12°C° 0.1 mm 3 mps 759 mmHg 82%
    21:00 +12°C° 0.1 mm 3 mps 759 mmHg 82%
    22:00 +13°C° 0.1 mm 2 mps 759 mmHg 82%
    23:00 +13°C° 0.1 mm 2 mps 759 mmHg 83%
    Show more